Weather History for KLWS - March, 2013

Change the Weather History Date:

Saturday, March 16, 2013

  Actual Average Record
Temperature  
Mean Temperature 46 °F 45 °F  
Max Temperature 54 °F 55 °F 73 °F (1972)
Min Temperature 37 °F 36 °F 7 °F (1906)
Degree Days  
Heating Degree Days 19 20  
Month to date heating degree days 277 346  
Since 1 July heating degree days 3716 4201  
Cooling Degree Days 0 0  
Month to date cooling degree days 0 0  
Year to date cooling degree days 0 0  
Moisture  
Dew Point 37 °F    
Average Humidity 70    
Maximum Humidity 85    
Minimum Humidity 54    
Precipitation  
Precipitation 0.04 in 0.04 in 0.37 in (1921)
Month to date precipitation 0.11 0.58  
Year to date precipitation 1.69 2.44  
Snow  
Snow 0.00 in 0.00 in T in (1965)
Month to date snowfall 0.0 0.6  
Since 1 July snowfall 2.6 10.4  
Snow Depth 0.00 in    
Sea Level Pressure  
Sea Level Pressure 29.93 in    
Wind  
Wind Speed 5 mph (WNW)    
Max Wind Speed 38 mph    
Max Gust Speed 51 mph    
Visibility 9 miles    
Events Rain    
T = Trace of Precipitation, MM = Missing Value Source: NWS Daily Summary

Daily Weather History Graph

Daily Weather History Graph

Search for Another Location

Airport or City:

Trip Planner

Search our weather history database for the weather conditions in past years. The results will help you decide how hot, cold, wet, or windy it might be!

Date:

Astronomy

Mar. 16, 2013 Rise Set
Actual Time 6:58 AM PDT 6:55 PM PDT
Civil Twilight 6:28 AM PDT 7:25 PM PDT
Nautical Twilight 5:53 AM PDT 8:00 PM PDT
Astronomical Twilight 5:17 AM PDT 8:36 PM PDT
Moon 9:13 AM PDT (3/16) No Moon Set
Length of Visible Light 12h 57m
Length of Day
11h 57m
Waxing Crescent, 24% of the Moon is Illuminated
Mar 16
Waxing Crescent
Mar 19
First Quarter
Mar 27
Full
Apr 2
Last Quarter
Apr 10
New

Hourly Weather History & Observations

Time (PDT) Temp. Windchill Dew Point Humidity Pressure Visibility Wind Dir Wind Speed Gust Speed Precip Events Conditions
12:56 AM 48.9 °F - 36.0 °F 61% 30.07 in 10.0 mi Calm Calm - N/A   Clear
1:56 AM 45.0 °F 43.5 °F 36.0 °F 71% 30.06 in 10.0 mi SE 3.5 mph - N/A   Clear
2:56 AM 46.9 °F - 36.0 °F 66% 30.05 in 10.0 mi Calm Calm - N/A   Partly Cloudy
3:56 AM 44.1 °F - 36.0 °F 73% 30.04 in 10.0 mi Calm Calm - N/A   Scattered Clouds
4:56 AM 39.9 °F - 35.1 °F 83% 30.04 in 10.0 mi Calm Calm - N/A   Clear
5:56 AM 41.0 °F 39.0 °F 36.0 °F 82% 30.03 in 10.0 mi ESE 3.5 mph - N/A   Overcast
6:56 AM 42.1 °F 40.2 °F 37.0 °F 82% 30.04 in 10.0 mi North 3.5 mph - N/A   Mostly Cloudy
7:56 AM 39.0 °F 35.7 °F 36.0 °F 89% 30.03 in 10.0 mi SSE 4.6 mph - N/A   Partly Cloudy
8:56 AM 44.1 °F - 37.9 °F 79% 30.02 in 10.0 mi Calm Calm - N/A   Overcast
9:56 AM 46.9 °F - 39.9 °F 77% 30.02 in 10.0 mi NE 4.6 mph - N/A   Overcast
10:56 AM 48.9 °F - 41.0 °F 74% 30.01 in 10.0 mi North 4.6 mph - 0.00 in   Overcast
11:56 AM 48.0 °F - 39.9 °F 74% 29.99 in 10.0 mi NNW 8.1 mph - 0.00 in   Overcast
12:56 PM 48.9 °F - 42.1 °F 77% 29.96 in 10.0 mi Calm Calm - 0.00 in   Overcast
1:56 PM 51.1 °F - 42.1 °F 71% 29.92 in 10.0 mi ESE 4.6 mph - N/A   Overcast
2:56 PM 53.1 °F - 37.9 °F 57% 29.88 in 10.0 mi Calm Calm - N/A   Mostly Cloudy
3:56 PM 53.1 °F - 39.0 °F 59% 29.85 in 10.0 mi Calm Calm - N/A   Mostly Cloudy
4:56 PM 52.0 °F - 35.1 °F 53% 29.84 in 10.0 mi West 13.8 mph 20.7 mph N/A   Overcast
5:56 PM 50.0 °F - 35.1 °F 57% 29.83 in 10.0 mi NW 9.2 mph 25.3 mph N/A   Overcast
6:56 PM 46.9 °F - 37.0 °F 68% 29.82 in 10.0 mi NW 13.8 mph 23.0 mph N/A   Overcast
7:56 PM 46.0 °F 44.8 °F 36.0 °F 68% 29.80 in 10.0 mi South 3.5 mph - N/A   Scattered Clouds
8:56 PM 46.0 °F - 35.1 °F 66% 29.79 in 10.0 mi Calm Calm - N/A   Clear
9:56 PM 46.0 °F - 34.0 °F 63% 29.77 in 10.0 mi Calm Calm - N/A   Overcast
10:51 PM 42.8 °F 33.3 °F 37.4 °F 81% 29.78 in 4.0 mi WNW 24.2 mph 33.4 mph 0.01 in Rain Rain
10:56 PM 42.1 °F 31.9 °F 37.9 °F 85% 29.79 in 4.0 mi West 26.5 mph 34.5 mph 0.03 in Rain Rain
11:30 PM 37.4 °F 25.9 °F 33.8 °F 87% 29.82 in 10.0 mi WNW 25.3 mph 31.1 mph 0.01 in Rain Light Rain
11:56 PM 37.9 °F 30.0 °F 34.0 °F 86% 29.84 in 10.0 mi West 12.7 mph 20.7 mph 0.01 in   Mostly Cloudy